This is the latest recevied weather packets stored in our database for station/object DB0LC-2. If no packets are shown the sender has not sent any weather packets the latest 1 day(s).
| Time | Temp. | Humidity | Pressure | Rain* | Wind** | Luminosity | Snow |
|---|---|---|---|---|---|---|---|
| 1778040587 | 19.44° C | 32% | 904.3 hPa | 0 mm | - | - | - |
| 1778039961 | 18.89° C | 32% | 904.3 hPa | 0 mm | - | - | - |
| 1778038701 | 20° C | 32% | 904.6 hPa | 0 mm | - | - | - |
| 1778038091 | 19.44° C | 32% | 904.7 hPa | 0 mm | - | - | - |
| 1778038090 | 19.44° C | 32% | 904.6 hPa | 0 mm | - | - | - |
| 1778036842 | 19.44° C | 32% | 904.9 hPa | 0 mm | - | - | - |
| 1778036210 | 20° C | 32% | 905 hPa | 0 mm | - | - | - |
| 1778035578 | 20° C | 32% | 905.2 hPa | 0 mm | - | - | - |
| 1778034358 | 19.44° C | 32% | 905.2 hPa | 0 mm | - | - | - |
| 1778034355 | 19.44° C | 32% | 905.2 hPa | 0 mm | - | - | - |
| 1778032433 | 20° C | 32% | 905.5 hPa | 0 mm | - | - | - |
| 1778031172 | 18.89° C | 32% | 905.8 hPa | 0 mm | - | - | - |
| 1778030551 | 19.44° C | 29% | 905.6 hPa | 0 mm | - | - | - |
| 1778029935 | 20° C | 32% | 905.6 hPa | 0 mm | - | - | - |
| 1778028013 | 19.44° C | 32% | 905.9 hPa | 0 mm | - | - | - |
| 1778027401 | 20° C | 32% | 906.1 hPa | 0 mm | - | - | - |
| 1778026790 | 20° C | 32% | 906.2 hPa | 0 mm | - | - | - |
| 1778025515 | 18.89° C | 33% | 906 hPa | 0 mm | - | - | - |
| 1778023031 | 19.44° C | 33% | 906.3 hPa | 0 mm | - | - | - |
| 1778020510 | 19.44° C | 32% | 906.4 hPa | 0 mm | - | - | - |
| 1778019271 | 19.44° C | 30% | 906.6 hPa | 0 mm | - | - | - |
| 1778018650 | 20° C | 32% | 906.7 hPa | 0 mm | - | - | - |
* Rain latest hour (hover to see other rain measurements)
** Current wind speed in m/s (hover to see current wind gust speed)